Preview of NWS' New Version of Forecast
This preview is not operational and should not be used for support decisions.

Regional Weather Roundup (RWR)

Issued by Gray - Portland, ME (GYX)

                            
000
ASUS41 KGYX 241705
RWRGYX
WEATHER ROUNDUP FOR MAINE AND NEW HAMPSHIRE
NATIONAL WEATHER SERVICE GRAY ME
100 PM EDT FRI MAY 24 2019

MEZ002-005-006-010-012-015-018-020-021-024-026-027-029-241800-
MAINE
  
CITY           SKY/WX    TMP DP  RH WIND       PRES   REMARKS
PORTLAND       CLOUDY    58  45  62 N23G38    29.80R                  
SANFORD        CLOUDY    60  46  59 N22G32    29.81R                  
BAR HARBOR     LGT RAIN  50  48  93 NE18      29.77R                  
WISCASSET      CLOUDY    55  46  71 VRB7G20   29.80R                  
ROCKLAND       CLOUDY    51  48  89 N14G22    29.77R                  
FRYEBURG       CLOUDY    57  44  62 N13       29.85R                  
LEWISTONAUBURN CLOUDY    56  46  69 N21G31    29.83R                  
AUGUSTA        LGT RAIN  53  49  86 N16       29.83R                  
WATERVILLE     LGT RAIN  53  48  83 N18G24    29.80R                  
BANGOR         DRIZZLE   53  50  89 NE17G29   29.81R FOG              
GREENVILLE       N/A     50  42  74 N8G20     29.86R                  
MILLINOCKET    CLOUDY    54  44  69 NE13      29.88R                  
HOULTON        CLOUDY    54  42  64 NE12G20   29.88R                  
PRESQUE ISLE   PTSUNNY   57  44  62 NE14G20   29.93R                  
FRENCHVILLE    FAIR      63  38  39 NE8       29.92R                  
CARIBOU        CLOUDY    60  43  53 NE6       29.91R                  
$$

NHZ002-005-008-009-011-012-014-241800-
NEW HAMPSHIRE
  
CITY           SKY/WX    TMP DP  RH WIND       PRES   REMARKS
PORTSMOUTH     PTSUNNY   66  47  50 NW21G31   29.75R                  
ROCHESTER      CLOUDY    62  47  57 N17G24    29.78R                  
NASHUA         PTSUNNY   69  51  52 NW18G31   29.78R                  
MANCHESTER     PTSUNNY   68  47  46 NW16G28   29.78R                  
CONCORD        PTSUNNY   67  47  48 N21G41    29.80R                  
LACONIA        CLOUDY    62  48  60 NW16G22   29.83R                  
PLYMOUTH       PTSUNNY   61  47  60 NW6G20    29.85R                  
BERLIN         LGT RAIN  53  45  74 N12       29.89R                  
WHITEFIELD     CLOUDY    53  46  77 N12G22    29.90R                  
JAFFREY        PTSUNNY   65  46  50 N8G29     29.83R                  
KEENE          PTSUNNY   67  48  50 N21G29    29.84R                  
LEBANON        CLOUDY    64  48  56 N16G33    29.86R                  
MT WASHINGTON  FOG       34  34 100 NW39G51     N/A  VSB 0   WCI  18  
$$

VTZ005-007-008-241800-
VERMONT
  
CITY           SKY/WX    TMP DP  RH WIND       PRES   REMARKS
ST JOHNSBURY     N/A     57  50  77 MISG      29.89R                  
MONTPELIER     CLOUDY    56  50  80 N14G23    29.95R                  
BURLINGTON     CLOUDY    58  51  78 N12G22    29.95R                  
$$

MAZ007-012-024-CTZ003-RIZ002-NYZ038-NYZ072-241800-
SOUTHERN NEW ENGLAND AND NY
  
CITY           SKY/WX    TMP DP  RH WIND       PRES   REMARKS
BOSTON         PTSUNNY   72  49  44 NW26G35   29.74R                  
WORCESTER      PTSUNNY   68  48  48 N23G36    29.79R                  
NANTUCKET      PTSUNNY   69  52  54 N18G33    29.70R                  
PROVIDENCE     PTSUNNY   72  51  47 N21G33    29.75R                  
HARTFORD       PTSUNNY   70  52  52 N14G23    29.85R                  
ALBANY         PTSUNNY   68  53  58 NW15G28   29.93R                  
NEW YORK CITY  FAIR      72  49  44 NW22G36   29.89R                  
$$

ANZ081-ANZ082-ANZ150-NHZ014-MEZ023>029-241800-
COASTAL MARINE OBSERVATIONS
  
STATION/POSITION TIME  TEMP    WIND        PRES    WAVE
                       AIR SEA DIR/SP/G            HT/PER
                 (UTC) (F)     (DEG/KT/KT) (MB)    (FT/S)
ISLE OF SHOALS   1600   58      10/ 20/ 23 1006.0R
JEFFREYS LEDGE   1608      47                N/A     4/ 7
GEORGES BANK BUO 1650   50 44  280/ 14/ 17 1002.4F   7/ 8
$$

.............KEY..............
   WCI - WIND CHILL
   TC  - TEMPERATURE IN CELSIUS
   VSB - VISIBILITY IN MILES
   HX  - HEAT INDEX
   FAIR- INDICATES FEW OR NO CLOUDS BELOW 12,000 FT, WITH NO 
         SIGNIFICANT WEATHER AND/OR OBSTRUCTIONS TO VISIBILITY.